This is the latest recevied weather packets stored in our database for station/object SP9EPI-13. If no packets are shown the sender has not sent any weather packets the latest 10 day(s).
| Time | Temp. | Humidity | Pressure | Rain* | Wind** | Luminosity | Snow |
|---|---|---|---|---|---|---|---|
| 1777793400 | 21.11° C | 42% | 1015.2 hPa | - | - | - | - |
| 1777792801 | 21.11° C | 51% | 1015.2 hPa | - | - | - | - |
| 1777792201 | 20° C | 61% | 1015.2 hPa | - | - | - | - |
| 1777791600 | 18.89° C | 62% | 1015.2 hPa | - | - | - | - |
| 1777791000 | 18.89° C | 66% | 1015.2 hPa | - | - | - | - |
| 1777790401 | 17.78° C | 72% | 1015.2 hPa | - | - | - | - |
| 1777789800 | 17.22° C | 72% | 1015.2 hPa | - | - | - | - |
| 1777789200 | 17.22° C | 80% | 1015.2 hPa | - | - | - | - |
| 1777788600 | 15° C | 78% | 1015.2 hPa | - | - | - | - |
| 1777788001 | 13.89° C | 82% | 1015.2 hPa | - | - | - | - |
| 1777787400 | 13.89° C | 85% | 1015.2 hPa | - | - | - | - |
| 1777786800 | 12.78° C | 89% | 1015.2 hPa | - | - | - | - |
| 1777786200 | 11.11° C | 97% | 1015.2 hPa | - | - | - | - |
| 1777785600 | 10° C | 97% | 1015.2 hPa | - | - | - | - |
| 1777785001 | 10° C | 99% | 1015.2 hPa | - | - | - | - |
| 1777784401 | 7.78° C | 99% | 1015.2 hPa | - | - | - | - |
| 1777783800 | 7.78° C | 99% | 1015.2 hPa | - | - | - | - |
| 1777783200 | 7.22° C | 99% | 1015.2 hPa | - | - | - | - |
| 1777782601 | 6.11° C | 99% | 1015.2 hPa | - | - | - | - |
| 1777782001 | 3.89° C | 99% | 1015.2 hPa | - | - | - | - |
| 1777781400 | 2.78° C | 99% | 1015.2 hPa | - | - | - | - |
| 1777780800 | 2.22° C | 99% | 1015.2 hPa | - | - | - | - |
| 1777780200 | 2.22° C | 99% | 1015.2 hPa | - | - | - | - |
| 1777779601 | 2.22° C | 99% | 1015.2 hPa | - | - | - | - |
| 1777779000 | 2.22° C | 99% | 1015.2 hPa | - | - | - | - |
* Rain since midnight (hover to see other rain measurements)
** Current wind speed in m/s (hover to see current wind gust speed)